Time,TemperatureF,DewpointF,PressureIn,WindDirection,WindDirectionDegrees,WindSpeedMPH,WindSpeedGustMPH,Humidity,HourlyPrecipIn,Conditions,Clouds,dailyrainin,SoftwareType,DateUTC
2013-01-29 00:06:00,40.1,39.0,30.04,SSW,206,0.0,2.0,95,0.00,,,0.00,weatherlink.com 1.10,2013-01-29 05:06:00,
2013-01-29 00:21:00,39.8,39.0,30.03,SSW,206,0.0,1.0,95,0.00,,,0.00,weatherlink.com 1.10,2013-01-29 05:21:00,
2013-01-29 00:37:00,40.0,39.0,30.03,SW,214,0.0,2.0,95,0.00,,,0.00,weatherlink.com 1.10,2013-01-29 05:37:00,
2013-01-29 00:52:00,40.1,39.0,30.03,SW,214,0.0,1.0,95,0.00,,,0.00,weatherlink.com 1.10,2013-01-29 05:52:00,
2013-01-29 01:06:00,40.2,39.0,30.03,SW,214,0.0,0.0,95,0.00,,,0.00,weatherlink.com 1.10,2013-01-29 06:06:00,
2013-01-29 01:21:00,40.4,39.0,30.02,SW,214,0.0,0.0,95,0.00,,,0.00,weatherlink.com 1.10,2013-01-29 06:21:00,
2013-01-29 01:37:00,40.5,39.0,30.02,SW,214,0.0,0.0,95,0.00,,,0.00,weatherlink.com 1.10,2013-01-29 06:37:00,
2013-01-29 01:51:00,40.5,39.0,30.03,SW,214,0.0,0.0,95,0.00,,,0.00,weatherlink.com 1.10,2013-01-29 06:51:00,
2013-01-29 02:06:00,40.4,39.0,30.03,SW,214,0.0,0.0,95,0.00,,,0.00,weatherlink.com 1.10,2013-01-29 07:06:00,
2013-01-29 02:21:00,40.3,39.0,30.03,SW,214,0.0,0.0,95,0.00,,,0.00,weatherlink.com 1.10,2013-01-29 07:21:00,
2013-01-29 02:36:00,40.2,39.0,30.03,SW,214,0.0,0.0,95,0.00,,,0.00,weatherlink.com 1.10,2013-01-29 07:36:00,
2013-01-29 02:51:00,40.1,39.0,30.04,SW,214,0.0,0.0,95,0.00,,,0.00,weatherlink.com 1.10,2013-01-29 07:51:00,
2013-01-29 03:06:00,40.1,39.0,30.04,SW,214,0.0,0.0,95,0.00,,,0.00,weatherlink.com 1.10,2013-01-29 08:06:00,
2013-01-29 03:21:00,40.0,39.0,30.04,SW,214,0.0,0.0,95,0.00,,,0.00,weatherlink.com 1.10,2013-01-29 08:21:00,
2013-01-29 03:36:00,40.2,39.0,30.04,SW,214,0.0,0.0,95,0.00,,,0.00,weatherlink.com 1.10,2013-01-29 08:36:00,
2013-01-29 03:52:00,40.4,39.0,30.03,SW,214,0.0,0.0,95,0.00,,,0.00,weatherlink.com 1.10,2013-01-29 08:52:00,
2013-01-29 04:06:00,40.4,39.0,30.03,SW,214,0.0,0.0,95,0.00,,,0.00,weatherlink.com 1.10,2013-01-29 09:06:00,
2013-01-29 04:21:00,40.2,39.0,30.03,SW,214,0.0,0.0,95,0.00,,,0.00,weatherlink.com 1.10,2013-01-29 09:21:00,
2013-01-29 04:36:00,40.1,39.0,30.04,SW,214,0.0,0.0,95,0.00,,,0.00,weatherlink.com 1.10,2013-01-29 09:36:00,
2013-01-29 04:51:00,40.0,39.0,30.04,SW,214,0.0,0.0,95,0.00,,,0.00,weatherlink.com 1.10,2013-01-29 09:51:00,
2013-01-29 05:06:00,39.9,39.0,30.04,SW,214,0.0,0.0,95,0.00,,,0.00,weatherlink.com 1.10,2013-01-29 10:06:00,
2013-01-29 05:22:00,39.8,39.0,30.04,SW,214,0.0,0.0,95,0.00,,,0.00,weatherlink.com 1.10,2013-01-29 10:22:00,
2013-01-29 05:37:00,39.5,38.0,30.04,SW,214,0.0,0.0,95,0.00,,,0.00,weatherlink.com 1.10,2013-01-29 10:37:00,
2013-01-29 05:52:00,38.8,38.0,30.05,SW,214,0.0,0.0,95,0.00,,,0.00,weatherlink.com 1.10,2013-01-29 10:52:00,
2013-01-29 06:07:00,38.3,37.0,30.05,SW,214,0.0,0.0,95,0.00,,,0.00,weatherlink.com 1.10,2013-01-29 11:07:00,
2013-01-29 06:22:00,37.8,37.0,30.05,SW,214,0.0,0.0,95,0.00,,,0.00,weatherlink.com 1.10,2013-01-29 11:22:00,
2013-01-29 06:37:00,37.2,36.0,30.05,SW,214,0.0,0.0,95,0.00,,,0.00,weatherlink.com 1.10,2013-01-29 11:37:00,
2013-01-29 06:52:00,36.7,35.0,30.05,SW,214,0.0,0.0,95,0.00,,,0.00,weatherlink.com 1.10,2013-01-29 11:52:00,
2013-01-29 07:07:00,36.2,35.0,30.05,SW,214,0.0,1.0,95,0.00,,,0.00,weatherlink.com 1.10,2013-01-29 12:07:00,
2013-01-29 07:22:00,35.9,35.0,30.05,SW,214,0.0,2.0,95,0.00,,,0.00,weatherlink.com 1.10,2013-01-29 12:22:00,
2013-01-29 07:37:00,36.1,35.0,30.06,SW,214,0.0,0.0,96,0.00,,,0.00,weatherlink.com 1.10,2013-01-29 12:37:00,
2013-01-29 07:52:00,36.6,36.0,30.06,SW,214,0.0,0.0,96,0.00,,,0.00,weatherlink.com 1.10,2013-01-29 12:52:00,
2013-01-29 08:07:00,37.1,36.0,30.06,SW,214,0.0,0.0,96,0.00,,,0.00,weatherlink.com 1.10,2013-01-29 13:07:00,
2013-01-29 08:22:00,37.9,37.0,30.07,SW,214,0.0,1.0,96,0.00,,,0.00,weatherlink.com 1.10,2013-01-29 13:22:00,
2013-01-29 08:37:00,39.7,39.0,30.07,SW,214,0.0,1.0,97,0.00,,,0.00,weatherlink.com 1.10,2013-01-29 13:37:00,
2013-01-29 08:52:00,43.3,43.0,30.06,SW,214,0.0,1.0,98,0.00,,,0.00,weatherlink.com 1.10,2013-01-29 13:52:00,
2013-01-29 09:07:00,45.9,45.0,30.07,SW,222,0.0,2.0,98,0.00,,,0.00,weatherlink.com 1.10,2013-01-29 14:07:00,
2013-01-29 09:22:00,48.6,48.0,30.07,SW,225,1.0,2.0,98,0.00,,,0.00,weatherlink.com 1.10,2013-01-29 14:22:00,
2013-01-29 09:37:00,53.1,53.0,30.07,SSW,209,0.0,3.0,98,0.00,,,0.00,weatherlink.com 1.10,2013-01-29 14:37:00,
2013-01-29 09:52:00,55.9,53.0,30.07,SSE,153,2.0,6.0,91,0.00,,,0.00,weatherlink.com 1.10,2013-01-29 14:52:00,
2013-01-29 10:08:00,57.6,53.0,30.08,SSE,163,2.0,4.0,85,0.00,,,0.00,weatherlink.com 1.10,2013-01-29 15:08:00,
2013-01-29 10:23:00,58.2,53.0,30.08,WSW,242,0.0,2.0,82,0.00,,,0.00,weatherlink.com 1.10,2013-01-29 15:23:00,
2013-01-29 10:38:00,59.0,54.0,30.07,SSE,155,3.0,5.0,82,0.00,,,0.00,weatherlink.com 1.10,2013-01-29 15:38:00,
2013-01-29 10:53:00,60.5,54.0,30.07,SW,229,2.0,4.0,80,0.00,,,0.00,weatherlink.com 1.10,2013-01-29 15:53:00,
2013-01-29 11:08:00,61.7,55.0,30.07,SSW,194,1.0,4.0,78,0.00,,,0.00,weatherlink.com 1.10,2013-01-29 16:08:00,
2013-01-29 11:23:00,62.3,55.0,30.06,WSW,244,3.0,5.0,76,0.00,,,0.00,weatherlink.com 1.10,2013-01-29 16:23:00,
2013-01-29 11:38:00,62.6,55.0,30.05,South,178,1.0,7.0,75,0.00,,,0.00,weatherlink.com 1.10,2013-01-29 16:38:00,
2013-01-29 11:53:00,62.9,55.0,30.05,WSW,245,2.0,6.0,75,0.00,,,0.00,weatherlink.com 1.10,2013-01-29 16:53:00,
2013-01-29 12:08:00,63.5,55.0,30.04,WSW,244,3.0,4.0,74,0.00,,,0.00,weatherlink.com 1.10,2013-01-29 17:08:00,
2013-01-29 12:23:00,64.3,55.0,30.03,SW,235,4.0,4.0,73,0.00,,,0.00,weatherlink.com 1.10,2013-01-29 17:23:00,
2013-01-29 12:38:00,64.6,55.0,30.02,WSW,249,1.0,7.0,72,0.00,,,0.00,weatherlink.com 1.10,2013-01-29 17:38:00,
2013-01-29 12:53:00,64.3,55.0,30.01,NW,323,2.0,7.0,73,0.00,,,0.00,weatherlink.com 1.10,2013-01-29 17:53:00,
2013-01-29 13:08:00,65.4,56.0,30.01,SSW,211,1.0,6.0,71,0.00,,,0.00,weatherlink.com 1.10,2013-01-29 18:08:00,
2013-01-29 13:23:00,65.8,56.0,30.00,South,189,2.0,7.0,70,0.00,,,0.00,weatherlink.com 1.10,2013-01-29 18:23:00,
2013-01-29 13:38:00,66.5,56.0,30.00,SE,126,1.0,5.0,69,0.00,,,0.00,weatherlink.com 1.10,2013-01-29 18:38:00,
2013-01-29 13:53:00,66.8,56.0,30.00,SSE,148,2.0,5.0,69,0.00,,,0.00,weatherlink.com 1.10,2013-01-29 18:53:00,
2013-01-29 14:23:00,67.7,56.0,29.98,West,264,1.0,5.0,67,0.00,,,0.00,weatherlink.com 1.10,2013-01-29 19:23:00,
2013-01-29 14:38:00,67.8,56.0,29.99,SE,132,2.0,4.0,67,0.00,,,0.00,weatherlink.com 1.10,2013-01-29 19:38:00,
2013-01-29 14:54:00,68.0,56.0,29.99,South,186,2.0,6.0,66,0.00,,,0.00,weatherlink.com 1.10,2013-01-29 19:54:00,
2013-01-29 15:08:00,67.1,56.0,29.98,SE,145,3.0,5.0,67,0.00,,,0.00,weatherlink.com 1.10,2013-01-29 20:08:00,
2013-01-29 15:23:00,67.0,56.0,29.98,South,177,1.0,5.0,67,0.00,,,0.00,weatherlink.com 1.10,2013-01-29 20:23:00,
2013-01-29 15:39:00,66.4,55.0,29.98,South,184,1.0,6.0,68,0.00,,,0.00,weatherlink.com 1.10,2013-01-29 20:39:00,
2013-01-29 16:09:00,66.0,55.0,29.98,SSE,150,0.0,1.0,68,0.00,,,0.00,weatherlink.com 1.10,2013-01-29 21:09:00,
2013-01-29 16:23:00,66.1,55.0,29.98,SSE,156,0.0,3.0,68,0.00,,,0.00,weatherlink.com 1.10,2013-01-29 21:23:00,
2013-01-29 16:39:00,66.0,55.0,29.97,SSE,147,0.0,4.0,68,0.00,,,0.00,weatherlink.com 1.10,2013-01-29 21:39:00,
2013-01-29 16:53:00,65.7,55.0,29.97,SE,143,0.0,4.0,68,0.00,,,0.00,weatherlink.com 1.10,2013-01-29 21:53:00,
2013-01-29 17:09:00,65.0,54.0,29.97,SSE,155,0.0,4.0,68,0.00,,,0.00,weatherlink.com 1.10,2013-01-29 22:09:00,
2013-01-29 17:24:00,64.0,54.0,29.97,SSE,155,0.0,3.0,70,0.00,,,0.00,weatherlink.com 1.10,2013-01-29 22:24:00,
2013-01-29 17:38:00,62.7,53.0,29.97,SSE,157,0.0,1.0,71,0.00,,,0.00,weatherlink.com 1.10,2013-01-29 22:38:00,
2013-01-29 17:53:00,61.1,52.0,29.97,SSE,158,0.0,1.0,73,0.00,,,0.00,weatherlink.com 1.10,2013-01-29 22:53:00,
2013-01-29 18:09:00,59.8,52.0,29.97,SSE,158,0.0,1.0,76,0.00,,,0.00,weatherlink.com 1.10,2013-01-29 23:09:00,
2013-01-29 18:23:00,59.4,52.0,29.97,SSE,166,0.0,0.0,77,0.00,,,0.00,weatherlink.com 1.10,2013-01-29 23:23:00,
2013-01-29 18:38:00,59.0,52.0,29.97,SSE,166,0.0,1.0,78,0.00,,,0.00,weatherlink.com 1.10,2013-01-29 23:38:00,
2013-01-29 18:53:00,58.5,52.0,29.96,South,169,0.0,1.0,78,0.00,,,0.00,weatherlink.com 1.10,2013-01-29 23:53:00,
2013-01-29 19:08:00,58.0,52.0,29.96,SSE,168,0.0,0.0,79,0.00,,,0.00,weatherlink.com 1.10,2013-01-30 00:08:00,
2013-01-29 19:23:00,57.2,51.0,29.97,SSE,168,0.0,0.0,80,0.00,,,0.00,weatherlink.com 1.10,2013-01-30 00:23:00,
2013-01-29 19:38:00,56.3,51.0,29.97,SSE,168,0.0,0.0,81,0.00,,,0.00,weatherlink.com 1.10,2013-01-30 00:38:00,
2013-01-29 19:54:00,55.3,50.0,29.97,South,169,0.0,0.0,83,0.00,,,0.00,weatherlink.com 1.10,2013-01-30 00:54:00,
2013-01-29 20:08:00,54.3,49.0,29.97,South,169,0.0,0.0,83,0.00,,,0.00,weatherlink.com 1.10,2013-01-30 01:08:00,
2013-01-29 20:24:00,52.8,47.0,29.96,South,169,0.0,0.0,81,0.00,,,0.00,weatherlink.com 1.10,2013-01-30 01:24:00,
2013-01-29 20:39:00,51.4,47.0,29.97,South,169,0.0,0.0,84,0.00,,,0.00,weatherlink.com 1.10,2013-01-30 01:39:00,
2013-01-29 20:54:00,50.2,46.0,29.96,SSE,168,0.0,0.0,86,0.00,,,0.00,weatherlink.com 1.10,2013-01-30 01:54:00,
2013-01-29 21:09:00,49.2,46.0,29.96,SSE,168,0.0,0.0,87,0.00,,,0.00,weatherlink.com 1.10,2013-01-30 02:09:00,
2013-01-29 21:24:00,48.4,45.0,29.96,SSE,168,0.0,0.0,88,0.00,,,0.00,weatherlink.com 1.10,2013-01-30 02:24:00,
2013-01-29 21:39:00,47.8,45.0,29.96,South,169,0.0,0.0,89,0.00,,,0.00,weatherlink.com 1.10,2013-01-30 02:39:00,
2013-01-29 21:54:00,47.3,45.0,29.96,South,169,0.0,0.0,90,0.00,,,0.00,weatherlink.com 1.10,2013-01-30 02:54:00,
2013-01-29 22:09:00,46.7,44.0,29.96,South,169,0.0,0.0,90,0.00,,,0.00,weatherlink.com 1.10,2013-01-30 03:09:00,
2013-01-29 22:24:00,46.0,43.0,29.96,South,169,0.0,0.0,90,0.00,,,0.00,weatherlink.com 1.10,2013-01-30 03:24:00,
2013-01-29 22:39:00,45.3,43.0,29.94,South,169,0.0,0.0,90,0.00,,,0.00,weatherlink.com 1.10,2013-01-30 03:39:00,
2013-01-29 22:54:00,45.0,43.0,29.95,South,169,0.0,0.0,91,0.00,,,0.00,weatherlink.com 1.10,2013-01-30 03:54:00,
2013-01-29 23:09:00,44.3,42.0,29.95,South,169,0.0,0.0,91,0.00,,,0.00,weatherlink.com 1.10,2013-01-30 04:09:00,
2013-01-29 23:24:00,43.9,42.0,29.94,SSE,168,0.0,0.0,92,0.00,,,0.00,weatherlink.com 1.10,2013-01-30 04:24:00,
2013-01-29 23:39:00,43.6,42.0,29.93,SSE,168,0.0,0.0,92,0.00,,,0.00,weatherlink.com 1.10,2013-01-30 04:39:00,
2013-01-29 23:54:00,43.3,42.0,29.93,SSE,168,0.0,0.0,93,0.00,,,0.00,weatherlink.com 1.10,2013-01-30 04:54:00,